Regional Weather Roundup
Issued by NWS

Home | Current Version | Previous Version | Text Only | Print | Product List | Glossary Off
Versions: 1 2 3 4 5 6 7 8 9 10 11 12 13 14 15 16 17 18 19 20 21 22 23 24 25 26 27 28 29 30 31 32 33 34 35 36 37 38 39 40 41 42 43 44 45 46 47 48 49 50

000
ASUS43 KOAX 112110
RWRNE

WEATHER ROUNDUP FOR NEBRASKA
NATIONAL WEATHER SERVICE OMAHA NE
300 PM CST THU FEB 11 2016

NOTES: SATELLITE DATA IS BEING USED TO AUGMENT CLOUD COVER ABOVE
       12000 FEET.
       "FAIR" INDICATES FEW OR NO CLOUDS BELOW 12,000 FEET WITH NO
       SIGNIFICANT WEATHER AND/OR OBSTRUCTIONS TO VISIBILITY.

  * THESE STATIONS DO NOT REPORT WEATHER SUCH AS RAIN...SNOW OR FOG.

NEZ001>004-019>022-054>056-112200-
NEBRASKA PANHANDLE

CITY           SKY/WX    TMP DP  RH WIND       PRES   REMARKS
SCOTTSBLUFF    CLOUDY    59  28  30 MISG      30.09S
ALLIANCE       CLOUDY    50  34  54 W9        30.06S
CHADRON        MOSUNNY   58  29  33 NW25G36   30.05F
KIMBALL        CLOUDY    53  26  34 NW18G26   30.12S
SIDNEY         CLOUDY    54  31  41 NW8       30.10F
$$

NEZ057>060-069>072-079>082-112200-
SOUTHWEST NEBRASKA

CITY           SKY/WX    TMP DP  RH WIND       PRES   REMARKS
NORTH PLATTE   SUNNY     46  32  58 SW5       30.03F
IMPERIAL       CLOUDY    51  31  46 NW13G22   30.05F
LEXINGTON      PTSUNNY   35  30  83 SW8       30.07S WCI  28
MCCOOK         SUNNY     46  34  62 SW5       30.05F
OGALLALA       CLOUDY    56  29  35 N16       30.04F
$$

NEZ005>010-023>029-035>040-094-112200-
NORTH CENTRAL NEBRASKA

CITY           SKY/WX    TMP DP  RH WIND       PRES   REMARKS
VALENTINE      SUNNY     53  32  44 NW20G28   29.97S
AINSWORTH      SUNNY     53  32  44 NW15G21   29.97F
BROKEN BOW     SUNNY     38  31  76 SW12      30.03F WCI  30
O`NEILL        CLOUDY    30  29  96 S10       30.04F FOG     WCI  21
ORD            CLOUDY    32  29  88 SW16      30.03F WCI  21
THEDFORD       MOSUNNY   61  30  31 NW25G38   29.98F
$$

NEZ041-046>049-061>064-073>077-083>087-112200-
SOUTH CENTRAL NEBRASKA

CITY           SKY/WX    TMP DP  RH WIND       PRES   REMARKS
GRAND ISLAND   CLOUDY    28  24  85 S17       30.10F WCI  16
AURORA         CLOUDY    29  25  85 S16       30.09F WCI  17
HASTINGS       CLOUDY    28  23  81 S12       30.09F WCI  18
HEBRON         CLOUDY    27  24  89 S10       30.16F FOG     WCI  18
HOLDREGE       CLOUDY    33  30  86 SW12      30.07F WCI  25
KEARNEY *      CLOUDY    30  27  86 S14       30.08F WCI  20
YORK           CLOUDY    28  25  86 S17       30.10F WCI  16
$$

NEZ011>018-030>034-042>045-112200-
NORTHEAST NEBRASKA

CITY           SKY/WX    TMP DP  RH WIND       PRES   REMARKS
NORFOLK        CLOUDY    26  21  81 S9        30.11S WCI  17
ALBION         CLOUDY    28  24  85 S13       30.09R WCI  17
BLAIR          CLOUDY    23  18  80 SE7       30.16F WCI  15
COLUMBUS *     CLOUDY    27  14  59 SE10      30.13S WCI  17
FREMONT        CLOUDY    24  19  79 SE6       30.16F WCI  17
TEKAMAH        CLOUDY    20  13  74 SE7       30.20F WCI  11
WAYNE          CLOUDY    21  17  83 SE13      30.14F WCI   9
$$

NEZ050>053-065>068-078-088>093-112200-
SOUTHEAST NEBRASKA

CITY           SKY/WX    TMP DP  RH WIND       PRES   REMARKS
LINCOLN        CLOUDY    27  22  81 S10       30.15F WCI  17
OMAHA EPPLEY   FLURRIES  24  17  74 SE6       30.19F WCI  17
BEATRICE       CLOUDY    28  22  78 SW9       30.17F WCI  19
FALLS CITY     CLOUDY    35  20  54 SE9       30.20F WCI  28
NEBRASKA CITY  PTSUNNY   32  20  61 S10       30.17F WCI  23
PLATTSMOUTH    FLURRIES  29  20  70 S9        30.17F WCI  20
$$

NEZ044-045-051>053-067-112200-
OMAHA AREA

CITY           SKY/WX    TMP DP  RH WIND       PRES   REMARKS
OMAHA EPPLEY   FLURRIES  24  17  74 SE6       30.19F WCI  17
BLAIR          CLOUDY    23  18  80 SE7       30.16F WCI  15
FREMONT        CLOUDY    24  19  79 SE6       30.16F WCI  17
MILLARD        CLOUDY    27  20  75 SE5       30.18F WCI  21
OFFUTT AFB     FLURRIES  28  20  71 SE7       30.18F WCI  21
PLATTSMOUTH    FLURRIES  29  20  70 S9        30.17F WCI  20
WAHOO          CLOUDY    26  20  80 S12       30.16F WCI  15
$$



USA.gov is the U.S. government's official web portal to all federal, state and local government web resources and services.